Flag for Germany Weather past 2 weeks in Rheinfelden (Baden), Baden-Württemberg, Germany

Now
45 °F

Mostly cloudy.


Feels Like: 38 °F
Forecast: 36 / 42 °F
Wind: 15 mph from Southwest

Location: Bale-Mulhouse

Current Time: Jan 29, 2015 at 12:11:28 AM

Latest Report: Jan 28, 2015 at 11:30 PM


Visibility: N/A

Pressure: 29.65 "Hg

Humidity: 81%

Dew point: 39 °F

Location of Rheinfelden (Baden)Location

Historic Weather in Rheinfelden (Baden) — Graph

°F

Rheinfelden (Baden) temperature yesterday

Maximum temperature yesterday: 43 °F (at 3:00 PM)
Minimum temperature yesterday: 30 °F (at 2:00 AM)
Average temperature yesterday: 36 °F

Past Weeks' High & Low Weather Summary

 TemperatureHumidityPressure
High55 °F (Jan 14, 12:30 AM)100% (Jan 16, 10:30 AM)30.45 "Hg (Jan 16, 10:30 AM)
Low27 °F (Jan 18, 4:30 AM)51% (Jan 14, 12:30 AM)29.68 "Hg (Jan 28, 10:00 PM)
Average36 °F89%30.02 "Hg
* Reported Jan 13 10:00 PM — Jan 28 10:30 PM, Rheinfelden (Baden), Weather by CustomWeather, © 2014

Note: Actual official high and low records may vary slightly from our data, if they occured in-between our weather recording intervals... More about our weather records

Advertising

Rheinfelden (Baden) weather history for previous 24 hours

 ConditionsComfort  
Time TempWeatherWind HumidityBarometerVisibility
10:30 PM
Jan 28
41 °FOvercast.3 mph81%29.68 "HgN/A
10:00 PM41 °FOvercast.7 mph76%29.68 "HgN/A
9:30 PM39 °FLight rain. Overcast.6 mph81%29.71 "HgN/A
9:00 PM39 °FOvercast.6 mph75%29.74 "HgN/A
8:00 PM39 °FPassing clouds.5 mph75%29.77 "HgN/A
7:30 PM39 °FPassing clouds.6 mph75%29.80 "HgN/A
7:00 PM41 °FPassing clouds.3 mph70%29.83 "HgN/A
6:30 PM41 °FPassing clouds.7 mph70%29.83 "HgN/A
6:00 PM41 °FPartly cloudy.8 mph70%29.86 "HgN/A
5:30 PM41 °FPassing clouds.10 mph70%29.86 "HgN/A
5:00 PM41 °FLight rain. Partly sunny.14 mph76%29.92 "HgN/A
4:30 PM41 °FPartly sunny.8 mph70%29.92 "HgN/A
4:00 PM43 °FBroken clouds.9 mph66%29.92 "HgN/A
3:30 PM43 °FPartly sunny.8 mph66%29.95 "HgN/A
3:00 PM43 °FPartly sunny.8 mph66%29.95 "HgN/A
2:30 PM41 °FPartly sunny.8 mph70%29.98 "HgN/A
2:00 PM41 °FPartly sunny.2 mph70%30.01 "HgN/A
1:40 PM41 °FPartly sunny.2 mph66%30.04 "HgN/A
1:00 PM39 °FPartly sunny.3 mph75%30.07 "HgN/A
12:30 PM39 °FPartly sunny.3 mph75%30.07 "HgN/A
12:00 PM39 °FPartly sunny.3 mph75%30.09 "HgN/A
11:30 AM39 °FPartly sunny.5 mph75%30.12 "HgN/A
11:00 AM37 °FPartly sunny.5 mph81%30.12 "HgN/A
10:30 AM36 °FBroken clouds.3 mph87%30.12 "HgN/A
10:00 AM34 °FBroken clouds.5 mph93%30.12 "HgN/A
9:30 AM34 °FBroken clouds.3 mph87%30.15 "HgN/A
9:00 AM34 °FPartly sunny.5 mph87%30.15 "HgN/A
8:30 AM30 °FBroken clouds.2 mph93%30.15 "HgN/A
8:00 AM32 °FPassing clouds.6 mph93%30.15 "HgN/A
7:30 AM32 °FPartly cloudy.7 mph93%30.15 "HgN/A
7:00 AM32 °FMostly cloudy.5 mph93%30.15 "HgN/A
6:30 AM32 °FOvercast.5 mph93%30.15 "HgN/A
6:00 AM32 °FPassing clouds.6 mph93%30.15 "HgN/A
5:30 AM32 °FPassing clouds.3 mph93%30.18 "HgN/A
5:00 AM30 °FPassing clouds.3 mph93%30.18 "HgN/A
4:30 AM30 °FPartly cloudy.5 mph93%30.18 "HgN/A
4:00 AM30 °FPassing clouds.3 mph100%30.21 "HgN/A
3:30 AM30 °FOvercast.3 mph100%30.21 "HgN/A
3:00 AM30 °FPassing clouds.5 mph93%30.21 "HgN/A
2:30 AM30 °FPassing clouds.3 mph100%30.24 "HgN/A
2:00 AM30 °FClear.2 mph93%30.24 "HgN/A
1:30 AM32 °FClear.3 mph87%30.24 "HgN/A
1:00 AM32 °FClear.2 mph93%30.24 "HgN/A
12:30 AM32 °FClear.1 mph93%30.24 "HgN/A
12:00 AM32 °FClear.1 mph93%30.24 "Hg10 mi
Weather by CustomWeather, © 2014

See weather overviewHow to use our weather pages